Location: Pinhey's Point
(45.4411°N, 75.9539°W)
Time: 07:48:19
(UTC-04:00)

Iridium 65 - Visible Passes

Search period start: 01 August 2015 00:00
Search period end: 11 August 2015 00:00
Orbit: 776 x 779 km, 86.4° (Epoch: 31 July)

Date Brightness Start Highest point End Pass type
(mag) Time Alt. Az. Time Alt. Az. Time Alt. Az.
01 Aug 6.6 01:18:53 10° NNE 01:23:33 33° ENE 01:24:27 31° E visible
01 Aug 6.4 02:59:40 10° NNW 03:04:17 32° W 03:04:55 31° W visible
02 Aug 7.4 00:46:02 10° NNE 00:49:41 19° ENE 00:50:50 18° E visible
02 Aug 5.6 02:25:47 10° N 02:30:55 57° W 02:31:17 55° WSW visible
03 Aug 7.9 00:14:23 10° NE 00:15:39 11° ENE 00:17:13 10° E visible
03 Aug 5.4 01:52:09 10° N 01:57:24 82° E 01:57:41 78° SE visible
03 Aug 7.5 03:34:59 10° NW 03:37:30 13° WNW 03:38:08 13° W visible
04 Aug 6.1 01:18:46 10° N 01:23:47 46° E 01:24:04 46° E visible
04 Aug 6.9 03:00:09 10° NNW 03:04:16 23° W 03:04:32 23° W visible
05 Aug 6.9 00:45:40 10° NNE 00:50:01 27° ENE 00:50:28 26° E visible
05 Aug 6.2 02:26:04 10° NNW 02:30:55 40° W 02:30:55 40° W visible
06 Aug 7.6 00:13:05 10° NE 00:16:05 16° ENE 00:16:53 15° E visible
06 Aug 5.5 01:52:17 10° N 01:57:20 71° WNW 01:57:20 71° WNW visible
07 Aug 5.7 01:18:45 10° N 01:23:45 65° ENE 01:23:45 65° ENE visible
07 Aug 7.4 03:00:53 10° NW 03:04:12 17° WNW 03:04:13 17° WNW visible
08 Aug 6.5 00:45:28 10° NNE 00:50:10 37° ENE 00:50:10 37° ENE visible
08 Aug 6.7 02:26:27 10° NNW 02:30:38 28° WNW 02:30:38 28° WNW visible
09 Aug 7.2 00:12:31 10° NNE 00:16:27 22° ENE 00:16:36 22° ENE visible
09 Aug 6.1 01:52:30 10° NNW 01:57:03 48° WNW 01:57:03 48° WNW visible
09 Aug 7.7 23:40:23 10° NE 23:42:27 12° ENE 23:43:02 12° ENE visible
10 Aug 5.7 01:18:49 10° N 01:23:29 71° N 01:23:29 71° N visible
10 Aug 7.7 03:02:12 10° NW 03:03:57 12° WNW 03:03:57 12° WNW visible
